Regional Weather Roundup
Issued by NWS

Home | Current Version | Previous Version | Graphics & Text | Print | Product List | Glossary On
Versions: 1 2 3 4 5 6 7 8 9 10 11 12 13 14 15 16 17 18 19 20 21 22 23 24 25 26 27
000
ASUS45 KPSR 270910
RWRAZ

ARIZONA HOURLY REGIONAL WEATHER ROUNDUP
NATIONAL WEATHER SERVICE PHOENIX AZ
200 AM MST THU JUL 27 2017

NOTE: FAIR INDICATES FEW OR NO CLOUDS BELOW 12,000 FEET WITH NO
SIGNIFICANT WEATHER AND/OR OBSTRUCTIONS TO VISIBILITY.

AZZ001>003-036-271000-
NORTHWEST ARIZONA

CITY           SKY/WX    TMP DP  RH WIND       PRES   REMARKS
KINGMAN        CLEAR     73  68  84 CALM      30.07F
$$

AZZ004>008-015-016-018-271000-
NORTH CENTRAL ARIZONA

CITY           SKY/WX    TMP DP  RH WIND       PRES   REMARKS
GRAND CANYON   CLEAR     58  55  90 CALM      30.32S
WILLIAMS       CLEAR     59  55  88 SE5       30.33S
PRESCOTT       PTCLDY    68  58  70 S6        30.19F
FLAGSTAFF      CLEAR     62  55  77 VRB3      30.33F
PAYSON         PTCLDY    72  57  60 NW5       30.21F
PAGE           CLEAR     81  58  45 N6        30.10F
$$

AZZ009>014-017-271000-
NORTHEAST ARIZONA

CITY           SKY/WX    TMP DP  RH WIND       PRES   REMARKS
WINSLOW        PTCLDY    72  58  61 CALM      30.17R
SAINT JOHNS    CLEAR     68  58  70 SW3       30.23R
WINDOW ROCK    CLEAR     64  54  69 CALM      30.29F
SHOW LOW       PTCLDY    63  54  72 S5        30.30S
$$

AZZ540-542>544-546-548-271000-
GREATER PHOENIX AREA

CITY           SKY/WX    TMP DP  RH WIND       PRES   REMARKS
PHOENIX        PTCLDY    95  58  28 W8        29.85R
BUCKEYE        PTCLDY    86  68  54 CALM      29.86R
LUKE AFB       PTCLDY    92  57  30 CALM      29.84S
DEER VALLEY    PTCLDY    88  62  41 CALM      29.87S
SCOTTSDALE     CLEAR     89  64  43 CALM      29.89S
MESA-GATEWAY   MOCLDY    86  70  58 S3        29.88S
$$

AZZ539-553-271000-
SOUTHWEST MARICOPA COUNTY AND PINAL COUNTY

CITY           SKY/WX    TMP DP  RH WIND       PRES   REMARKS
CASA GRANDE    NOT AVBL
GILA BEND      FAIR      89  62  39 SE6       29.85R
$$

AZZ503-504-507>509-271000-
SOUTHEAST ARIZONA

CITY           SKY/WX    TMP DP  RH WIND       PRES   REMARKS
TUCSON         MOCLDY    81  68  64 S7        30.02R
DAVIS-MONTHAN  MOCLDY    79  66  63 S7        30.00S
NOGALES        CLOUDY    71  68  90 CALM      30.11S
SIERRA VISTA   CLOUDY    73  60  63 SW6       30.17F
DOUGLAS        CLOUDY    71  66  84 E9        30.13F
SAFFORD        PTCLDY    79  62  56 NW6       30.00S
$$

AZZ532-271000-
SOUTHWEST ARIZONA

CITY           SKY/WX    TMP DP  RH WIND       PRES   REMARKS
YUMA           PTCLDY    89  52  28 CALM      29.82R
$$

CAZ041-043-047-048-061-525>527-560>570-271000-
SOUTHERN CALIFORNIA

CITY           SKY/WX    TMP DP  RH WIND       PRES   REMARKS
DOWNTOWN L.A.  CLEAR     68  61  78 CALM      29.97F
L.A. AIRPORT   PTCLDY    67  64  90 N5        29.98S
SAN DIEGO      CLOUDY    71  64  78 NW8       29.97F
BURBANK        CLEAR     67  60  78 CALM      29.99R
ONTARIO        CLEAR     70  62  76 VRB5      29.98F
RIVERSIDE      CLEAR     70  63  78 W3        29.98F
PALM SPRINGS   CLEAR     88  62  41 SE5       29.85F
EL CENTRO NAS  CLEAR     89  31  12 W10       29.81F
IMPERIAL       CLEAR     87  47  24 W8        29.78F
BLYTHE         CLEAR     94  53  25 S7        29.81F
NEEDLES        CLEAR     98  49  18 SW8       29.84S
$$

NVZ020-UTZ003-271000-
SOUTHERN NEVADA-UTAH

CITY           SKY/WX    TMP DP  RH WIND       PRES   REMARKS
LAS VEGAS      PTCLDY    88  64  44 CALM      29.95F
SALT LAKE CITY PTCLDY    70  61  73 E3        30.16R
$$

NMZ009-TXZ055-271000-
NEW MEXICO-WEST TEXAS

CITY           SKY/WX    TMP DP  RH WIND       PRES   REMARKS
ALBUQUERQUE    CLOUDY    79  54  41 SE9       30.17F
EL PASO        PTCLDY    79  64  60 SW8       30.07F
$$


........................KEY........................
SKY/WX - SKY CONDITION/WEATHER
TMP    - TEMPERATURE IN FAHRENHEIT
DP     - DEW POINT IN FAHRENHEIT
RH     - RELATIVE HUMIDITY IN PERCENT
WIND   - DIRECTION AND SPEED IN MILES PER HOUR (MPH)
VRB    - VARIABLE WIND DIRECTION
PRES   - MEAN SEA LEVEL PRESSURE IN INCHES OF MERCURY
         F - FALLING PRESSURE   R - RISING PRESSURE
         S - STEADY PRESSURE
VSB    - VISIBILITY IN MILES
HX     - HEAT INDEX IN FAHRENHEIT
WCI    - WIND CHILL INDEX IN FAHRENHEIT
TC     - TEMPERATURE IN CELSIUS WHICH IS ALSO KNOWN AS
         TEMPERATURE IN CENTIGRADE
AFB    - AIR FORCE BASE
         LUKE AFB IS LUKE AIR FORCE BASE
         DAVIS-MONTHAN IS DAVIS-MONTHAN AIR FORCE BASE
NAS    - NAVAL AIR STATION
         EL CENTRO NAS IS EL CENTRO NAVAL AIR STATION
N/A    - NOT AVAILABLE





USA.gov is the U.S. government's official web portal to all federal, state and local government web resources and services.